STARLINK-34578, 64856

Orbit data source: Space-Track

STARLINK-34578, 64856 is a payload satellite owned by SpaceX/Seattle (US) in SSO that was launched on Sat, 19 Jul 2025 UTC via an FALCON 9 launch vehicle from the Air Force Western Test Range (AFWTR). Payload-class satellites include a variety of spacecraft equipped with specific instruments for various scientific and technological missions. These include communications satellites like Starlink; space stations such as the ISS; scientific satellites like the Hubble; Earth observation satellites from companies like Planet Labs, Umbra, and HawkEye 360; GPS; miniature CubeSats for education and research; and military/defense satellites.

Loading next visibility...
Identifier
64856, 2025-152Q
Orbit
SSO
Country
Flag of USUS
Related business
Manufacturer
SpaceX/Seattle
Mission
Operational Commercial Communications
Bus & Motor
STARLINK V2MO, Unknown motor
Mass
575 kg wet, ~530 kg dry
Launch date (UTC)
2025-07-19 (9 months ago)
Launch vehicle
FALCON 9
Launch site
Air Force Western Test Range (AFWTR)
Object type
Payload
Rocket body
Debris
Shape & HBR
Box + 2 Pan, 17.7 m
Radar Cross Section
36.964 m², Large (>1 m²)

Expand to show TLE details & history
Last TLE update: 11 hours ago

TLE from 11 hours ago
0 STARLINK-34578
1 64856U 25152Q   26094.88272818  .00002793  00000-0  19767-3 0  9993
2 64856  97.6034 311.4059 0001310  85.3972 274.7404 15.05651226 39364
Epoch: 2026-04-04T21:11Z
TLE epoch observation values (Epoch: 2026-04-04T21:11:07.714Z)
Latitude
-0.00008°
Longitude
160.42765°
Altitude
552.498 km
Speed
7.586 km/s
True Right ascension
20h 45m 37s
True Declination
0° 00' 00"
Sunlit
Object was in daylight at epoch
Visualization orbit readout
Latitude
Unknown
Longitude
Unknown
Altitude
Unknown
Speed
Unknown
Apparent Right ascension
Unknown
Apparent Declination
Unknown
Sunlit
N/A
Visualization observer readout
Local Sidereal Time
14:34:09
Azimuth
Unknown
Elevation
Unknown
Doppler factor
Unknown
Orbital elements
Apogee altitude
547.408 km
Perigee altitude
545.594 km
Semi-major axis
6,924.638 km
Eccentricity
0.00013
Inclination
97.6034°
RAAN
311.4059°
Arg. of periapsis
85.3972°
True anomaly
274.72544°
Mean anomaly
274.7404°
Eccentric anomaly
274.73292°
Mean motion
3.76658 °/min
Orbital period
95.58 mins
BSTAR
0.00019767
Loading maneuver chart data...
Computing Atmospheric mass density...
Loading historical data...
Loading historical data...
Loading historical data...
Loading historical data...
Loading historical data...
Loading historical data...
Loading historical data...

Documentation

Showing up to 5 results
|